Location: *
(38.9555°S, 57.3572°E)
Time: 01:02:51
(UTC+00:00)

MOS 1 Rocket - Pass Details

Date: 15 July 2020
Orbit: 615 x 829 km, 97.4° (Epoch: 06 August)

Event Time Altitude Azimuth Distance (km) Brightness Sun altitude
Rises 15:19:44 0° 2° (N) 3,360 6.9 -25.2°
Reaches altitude 10° 15:22:08 10° 357° (N) 2,435 6.2 -25.7°
Maximum altitude 15:27:29 56° 279° (W) 980 4.2 -26.7°
Drops below altitude 10° 15:32:46 10° 201° (SSW) 2,410 6.2 -27.7°
Sets 15:35:09 0° 196° (SSW) 3,323 6.9 -28.2°
